Regional Weather Roundup
Issued by NWS

Home | Current Version | Previous Version | Text Only | Print | Product List | Glossary Off
Versions: 1 2 3 4 5 6 7 8 9 10 11 12 13 14 15 16 17 18 19 20 21 22 23 24 25 26 27 28 29 30 31 32 33 34 35 36 37 38 39 40 41 42 43 44 45 46 47 48 49 50

000
ASUS45 KTFX 290210
RWRMT
MONTANA REGIONAL WEATHER ROUNDUP
NATIONAL WEATHER SERVICE GREAT FALLS MT
800 PM MDT THU JUL 28 2016

NOTE: "FAIR" INDICATES FEW OR NO CLOUDS BELOW 12000 FEET WITH NO
SIGNIFICANT WEATHER AND/OR OBSTRUCTIONS TO VISIBILITY.

MTZ001>007-043-290300-
WEST OF THE DIVIDE

CITY           SKY/WX    TMP DP  RH WIND       PRES   REMARKS
KALISPELL      SUNNY     85  56  37 E13       30.02F
MISSOULA       SUNNY     88  45  22 N7        30.03F
BUTTE          CLEAR     80  38  22 NW7       30.17F
MULLAN PASS    SUNNY     71  43  36 VRB3      30.25F
ANACONDA         N/A     79  48  34 CALM      30.14S
DEER LODGE       N/A     81  43  26 NW8       30.15R
EUREKA           N/A     88  46  23 CALM      30.01F
HAMILTON         N/A     84  52  32 CALM      30.05S
LIBBY            N/A     90  48  24 CALM      30.01S
PLAINS           N/A     90  51  26 W7        30.00F
RONAN            N/A     86  52  30 N5        30.08F
THOMPSON FALLS   N/A     89  46  22 W5        30.03F
$$

MTZ008-052>055-290300-
SOUTHWEST MONTANA

CITY           SKY/WX    TMP DP  RH WIND       PRES   REMARKS
BOZEMAN        PTCLDY    81  50  33 SE7       30.10F
DILLON         CLEAR     83  44  25 NE8       30.11F
W YELLOWSTONE  CLEAR     77  25  14 N6        30.25S
ENNIS          CLEAR     81  39  22 N10       30.18F
THREE FORKS      N/A     84 -36   1 NE2       30.07F
TWIN BRIDGES     N/A     86  42  21 N7        30.09S
$$

MTZ009-010-012-014-046-048-049-054-290300-
EAST SLOPES AND CENTRAL MONTANA

CITY           SKY/WX    TMP DP  RH WIND       PRES   REMARKS
CUT BANK         N/A     78  50  37 E9        30.08F
GREAT FALLS    CLEAR     81  44  27 E9        30.07F
HELENA         PTCLDY    84  46  26 E9        30.05F
CHOTEAU          N/A     81  46  30 CALM      30.10F
CONRAD           N/A     77  57  49 NE7       30.10F
$$

MTZ011-013-016-021-045-047-050-051-290300-
NORTH CENTRAL MONTANA

CITY           SKY/WX    TMP DP  RH WIND       PRES   REMARKS
HAVRE          PTCLDY    78  56  46 E12       30.06F
N BAR RANCH      N/A     72  48  43 E6        30.19F
CHINOOK          N/A     75  55  50 E7        30.07F
$$

MTZ017>020-022>027-061-062-290300-
NORTHEAST MONTANA

CITY           SKY/WX    TMP DP  RH WIND       PRES   REMARKS
GLASGOW        CLEAR     77  50  38 CALM      30.09S
JORDAN           N/A     76  55  48 E7        30.11R
SIDNEY         CLEAR     71  58  63 E6        30.11R
WOLF POINT     CLEAR     76  53  44 SE3       30.10R
PLENTYWOOD       N/A     73  54  49 E5        30.12S
SCOBEY           N/A     74  51  44 CALM      30.11R
$$

MTZ028>42-056>058-290300-
SOUTHCENTRAL AND SOUTHEAST MONTANA

CITY           SKY/WX    TMP DP  RH WIND       PRES   REMARKS
BAKER          PTCLDY    67  60  78 SE9       30.14S
BILLINGS       MOCLDY    78  48  34 E9        30.12F
LIVINGSTON     CLEAR     74  51  44 E14       30.14F
MILES CITY     CLEAR     76  54  46 NE10      30.09S
EKALAKA          N/A     70  59  68 E5        30.11S
FORSYTH          N/A     79  54  41 CALM      30.09F
LAUREL           N/A     77  53  43 NE3       30.10
ROUNDUP          N/A     76  51  41 CALM      30.03F
$$

REGIONAL REPORTS...DAKOTAS

CITY           SKY/WX    TMP DP  RH WIND       PRES   REMARKS
WILLISTON      PTCLDY    71  54  54 E6        30.11F
MINOT          CLEAR     71  54  54 E5        30.11S
DICKINSON      MOCLDY    65  57  75 E8        30.13S
CROSBY           N/A     66  59  77 E5        30.14F
WATFORD CITY     N/A    N/A N/A N/A MISG        N/A
BISMARCK       CLOUDY    72  55  55 N6        30.11S
GRAND FORKS    CLEAR     67  59  75 N6        30.07S
FARGO          CLEAR     71  60  68 N8        30.06S
BUFFALO SD       N/A     67  63  87 E10       30.08R
RAPID CITY     MOCLDY    70  58  65 E9        30.13S
$$

REGIONAL REPORTS...WYOMING/IDAHO/WASHINGTON

CITY           SKY/WX    TMP DP  RH WIND       PRES   REMARKS
GILLETTE       CLEAR     67  53  61 E14       30.18R
SHERIDAN       CLEAR     74  53  48 NE8       30.15R
BUFFALO WY     PTCLDY    73  47  39 NW10      30.21S
CODY           PTCLDY    73  48  40 N10       30.20S
YELLOWSTONE LA   N/A     71  30  21 NW6       30.35S
IDAHO FALLS    CLEAR     90  37  15 S8        30.05F
SALMON         SUNNY     84  46  26 N6        29.99F
BOISE          SUNNY     97  32  10 NW8       29.93F HX  91
SPOKANE        MOSUNNY   93  37  14 VRB3      29.99F
$$

REGIONAL REPORTS...ALBERTA

CITY           SKY/WX    TMP DP  RH WIND       PRES   REMARKS
EDMONTON       RAIN      59  57  94 S3        30.06S
CALGARY        CLOUDY    61  55  82 SW10      30.16R THUNDER
LETHBRIDGE     PTSUNNY   75  61  60 NE10      30.05F
MEDICINE HAT   MOCLDY    73  57  56 N16       30.04S
WATERTON GATE    N/A     73  54  49 E1          N/A
MILK RIVER       N/A     75  57  53 E5          N/A
ONEFOUR          N/A     77  46  33 E12         N/A
$$

REGIONAL REPORTS...SASKATCHEWAN

CITY           SKY/WX    TMP DP  RH WIND       PRES   REMARKS
SWIFT CURRENT  CLEAR     72  57  60 SE3       30.09F HAZE
REGINA         PTCLDY    70  52  52 S5        30.10F
SASKATOON      MOCLDY    73  61  64 W6        30.05F
CYPRESS HILLS    N/A     68  50  52 SE5         N/A
VAL MARIE        N/A     73  54  49 SE3         N/A
ROCKGLEN         N/A     68  54  60 SE5         N/A
ASSINIBOIA       N/A     68  63  83 S5          N/A
$$



USA.gov is the U.S. government's official web portal to all federal, state and local government web resources and services.